Arbor Vitae, WI

10:04 AM CDT on April 26, 2017 (GMT -0500)
Lakeland-Lee Memorial

Weather History for KARV - June, 2013

Change the Weather History Date:

Tuesday, June 11, 2013

  Actual Average Record
Temperature  
Mean Temperature 64 °F -  
Max Temperature 77 °F 73 °F 90 °F (1949)
Min Temperature 52 °F 48 °F 32 °F (1910)
Growing Degree Days 14 (Base 50)    
Moisture  
Dew Point 56 °F    
Average Humidity 72    
Maximum Humidity 95    
Minimum Humidity 42    
Precipitation  
Precipitation 0.00 in - - ()
Sea Level Pressure  
Sea Level Pressure 29.88 in    
Wind  
Wind Speed 2 mph (NW)    
Max Wind Speed 12 mph    
Max Gust Speed 16 mph    
Visibility 8 miles    
Events Fog    
Averages and records for this station are not official NWS values.
T = Trace of Precipitation, MM = Missing Value Source: NWS Daily Summary

Daily Weather History Graph

Daily Weather History Graph

Search for Another Location

Airport or City:

Trip Planner

Search our weather history database for the weather conditions in past years. The results will help you decide how hot, cold, wet, or windy it might be!

Date:

Astronomy

Jun. 11, 2013 Rise Set
Actual Time 5:08 AM CDT 8:49 PM CDT
Civil Twilight 4:29 AM CDT 9:27 PM CDT
Nautical Twilight 3:38 AM CDT 10:19 PM CDT
Astronomical Twilight 2:28 AM CDT 11:29 PM CDT
Moon 7:58 AM CDT (6/11) 10:43 PM CDT (6/11)
Length of Visible Light 16h 57m
Length of Day
15h 41m
Waxing Crescent, 8% of the Moon is Illuminated
Jun 11
Waxing Crescent
Jun 16
First Quarter
Jun 23
Full
Jun 29
Last Quarter
Jul 8
New

Hourly Weather History & Observations

Time (CDT) Temp. Dew Point Humidity Pressure Visibility Wind Dir Wind Speed Gust Speed Precip Events Conditions
12:15 AM 59.4 °F 57.2 °F 93% 29.87 in 7.0 mi Calm Calm - N/A   Clear
12:35 AM 57.7 °F 55.9 °F 94% 29.87 in 1.0 mi Calm Calm - N/A   Mist
12:55 AM 56.8 °F 54.9 °F 93% 29.87 in 4.0 mi Calm Calm - N/A   Clear
1:15 AM 56.8 °F 54.9 °F 93% 29.86 in 7.0 mi Calm Calm - N/A   Scattered Clouds
1:35 AM 56.8 °F 54.9 °F 93% 29.86 in 5.0 mi Calm Calm - N/A   Scattered Clouds
1:55 AM 56.8 °F 54.9 °F 93% 29.86 in 2.0 mi Calm Calm - N/A   Clear
2:15 AM 56.8 °F 54.9 °F 93% 29.86 in 2.0 mi Calm Calm - N/A   Clear
2:35 AM 55.8 °F 53.8 °F 93% 29.86 in 1.5 mi Calm Calm - N/A   Mist
2:55 AM 56.3 °F 54.5 °F 94% 29.85 in 4.0 mi Calm Calm - N/A   Clear
3:15 AM 54.5 °F 52.3 °F 92% 29.86 in 0.5 mi Calm Calm - N/A Fog Fog
3:35 AM 54.5 °F 52.7 °F 94% 29.86 in 0.5 mi Calm Calm - N/A Fog Fog
3:55 AM 54.5 °F 52.7 °F 94% 29.87 in 1.2 mi Calm Calm - N/A   Overcast
4:15 AM 54.7 °F 52.9 °F 94% 29.87 in 2.0 mi Calm Calm - N/A   Overcast
4:35 AM 54.3 °F 52.7 °F 94% 29.88 in 0.2 mi Calm Calm - N/A Fog Fog
4:55 AM 54.3 °F 52.5 °F 94% 29.88 in 2.5 mi Calm Calm - N/A   Scattered Clouds
5:15 AM 52.0 °F 50.4 °F 94% 29.88 in 1.8 mi Calm Calm - N/A   Mostly Cloudy
5:35 AM 53.2 °F 51.6 °F 94% 29.89 in 0.5 mi Calm Calm - N/A Fog Fog
5:55 AM 54.5 °F 52.7 °F 94% 29.90 in 0.2 mi Calm Calm - N/A Fog Fog
6:15 AM 56.8 °F 55.4 °F 95% 29.90 in 0.2 mi Calm Calm - N/A Fog Fog
6:35 AM 56.8 °F 55.4 °F 95% 29.91 in 2.0 mi Calm Calm - N/A   Overcast
6:55 AM 57.9 °F 56.3 °F 94% 29.91 in 3.0 mi Calm Calm - N/A   Scattered Clouds
7:15 AM 59.4 °F 57.7 °F 94% 29.90 in 2.0 mi Calm Calm - N/A   Clear
7:35 AM 60.4 °F 58.8 °F 94% 29.90 in 3.0 mi Calm Calm - N/A   Scattered Clouds
7:55 AM 62.1 °F 60.1 °F 93% 29.90 in 7.0 mi Calm Calm - N/A   Scattered Clouds
8:15 AM 64.4 °F 59.7 °F 85% 29.89 in 10.0 mi Calm Calm - N/A   Scattered Clouds
8:35 AM 66.6 °F 60.1 °F 80% 29.89 in 10.0 mi Calm Calm - N/A   Clear
8:55 AM 68.0 °F 59.9 °F 75% 29.88 in 10.0 mi WNW 5.8 mph - N/A   Clear
9:15 AM 67.1 °F 59.2 °F 76% 29.89 in 10.0 mi NW 9.2 mph - N/A   Mostly Cloudy
9:35 AM 72.0 °F 62.2 °F 71% 29.88 in 10.0 mi WNW 5.8 mph - N/A   Scattered Clouds
9:55 AM 70.9 °F 61.2 °F 71% 29.88 in 10.0 mi WNW 8.1 mph - N/A   Scattered Clouds
10:15 AM 72.0 °F 61.2 °F 69% 29.88 in 10.0 mi West 9.2 mph - N/A   Scattered Clouds
10:35 AM 72.0 °F 59.4 °F 64% 29.88 in 10.0 mi West 8.1 mph - N/A   Mostly Cloudy
10:55 AM 72.0 °F 59.0 °F 64% 29.88 in 10.0 mi SW 4.6 mph - N/A   Scattered Clouds
11:15 AM 72.1 °F 58.6 °F 62% 29.87 in 10.0 mi SSW 4.6 mph - N/A   Scattered Clouds
11:35 AM 73.2 °F 59.4 °F 62% 29.88 in 10.0 mi West 5.8 mph - N/A   Scattered Clouds
11:55 AM 73.4 °F 58.8 °F 60% 29.88 in 10.0 mi WNW 5.8 mph - N/A   Scattered Clouds
12:15 PM 73.6 °F 59.2 °F 61% 29.88 in 10.0 mi West 6.9 mph 16.1 mph N/A   Mostly Cloudy
12:35 PM 75.6 °F 61.2 °F 61% 29.88 in 10.0 mi NW 5.8 mph - N/A   Mostly Cloudy
12:55 PM 77.0 °F 60.8 °F 57% 29.87 in 10.0 mi West 5.8 mph - N/A   Scattered Clouds
1:15 PM 77.0 °F 60.8 °F 57% 29.87 in 10.0 mi West 9.2 mph - N/A   Scattered Clouds
1:35 PM 77.0 °F 60.3 °F 56% 29.87 in 10.0 mi West 4.6 mph 9.2 mph N/A   Scattered Clouds
1:55 PM 77.0 °F 58.5 °F 53% 29.85 in 10.0 mi West 3.5 mph - N/A   Scattered Clouds
2:15 PM 77.0 °F 58.8 °F 53% 29.85 in 10.0 mi West 5.8 mph - N/A   Scattered Clouds
2:35 PM 77.0 °F 60.1 °F 56% 29.85 in 10.0 mi West 6.9 mph - N/A   Scattered Clouds
2:55 PM 77.0 °F 60.4 °F 56% 29.85 in 10.0 mi NNW 11.5 mph - N/A   Scattered Clouds
3:15 PM 77.0 °F 61.2 °F 58% 29.85 in 10.0 mi North 5.8 mph - N/A   Mostly Cloudy
3:35 PM 77.0 °F 60.8 °F 57% 29.85 in 10.0 mi NW 3.5 mph - N/A   Mostly Cloudy
3:55 PM 77.0 °F 57.7 °F 51% 29.86 in 10.0 mi North 10.4 mph - N/A   Mostly Cloudy
4:15 PM 77.4 °F 55.8 °F 47% 29.85 in 10.0 mi North 5.8 mph - N/A   Scattered Clouds
4:35 PM 77.0 °F 57.0 °F 50% 29.85 in 10.0 mi North 8.1 mph - N/A   Scattered Clouds
4:55 PM 77.0 °F 55.9 °F 48% 29.85 in 10.0 mi North 6.9 mph - N/A   Scattered Clouds
5:15 PM 77.0 °F 57.0 °F 50% 29.86 in 10.0 mi North 6.9 mph - N/A   Mostly Cloudy
5:35 PM 77.0 °F 56.7 °F 49% 29.86 in 10.0 mi NNW 11.5 mph - N/A   Scattered Clouds
5:55 PM 77.0 °F 54.5 °F 46% 29.86 in 10.0 mi NNW 11.5 mph - N/A   Scattered Clouds
6:15 PM 77.0 °F 55.0 °F 47% 29.86 in 10.0 mi NNW 11.5 mph - N/A   Mostly Cloudy
6:35 PM 77.0 °F 54.3 °F 45% 29.86 in 10.0 mi North 9.2 mph - N/A   Scattered Clouds
6:55 PM 77.0 °F 52.0 °F 42% 29.87 in 10.0 mi North 10.4 mph - N/A   Clear
7:15 PM 73.6 °F 49.1 °F 42% 29.88 in 10.0 mi North 8.1 mph - N/A   Clear
7:35 PM 72.0 °F 48.4 °F 43% 29.88 in 10.0 mi North 6.9 mph - N/A   Clear
7:55 PM 72.0 °F 47.5 °F 42% 29.89 in 10.0 mi North 6.9 mph - N/A   Clear
8:15 PM 69.4 °F 50.2 °F 50% 29.89 in 10.0 mi North 4.6 mph - N/A   Clear
8:35 PM 69.4 °F 49.1 °F 48% 29.90 in 10.0 mi North 3.5 mph - N/A   Scattered Clouds
8:55 PM 65.8 °F 49.6 °F 56% 29.91 in 10.0 mi Calm Calm - N/A   Scattered Clouds
9:15 PM 63.1 °F 50.7 °F 64% 29.91 in 10.0 mi Calm Calm - N/A   Scattered Clouds
9:35 PM 61.9 °F 51.4 °F 69% 29.92 in 10.0 mi Calm Calm - N/A   Clear
9:55 PM 59.4 °F 50.5 °F 73% 29.92 in 10.0 mi Calm Calm - N/A   Clear
10:15 PM 59.4 °F 51.3 °F 75% 29.92 in 10.0 mi Calm Calm - N/A   Clear
10:35 PM 56.8 °F 51.1 °F 81% 29.92 in 10.0 mi Calm Calm - N/A   Clear
10:55 PM 56.8 °F 50.9 °F 80% 29.92 in 10.0 mi Calm Calm - N/A   Clear
11:15 PM 56.8 °F 51.8 °F 83% 29.91 in 10.0 mi Calm Calm - N/A   Clear
11:35 PM 56.8 °F 51.3 °F 82% 29.91 in 10.0 mi Calm Calm - N/A   Clear
11:55 PM 54.5 °F 49.8 °F 84% 29.91 in 10.0 mi Calm Calm - N/A   Clear